This is the latest recevied weather packets stored in our database for station/object N5PA. If no packets are shown the sender has not sent any weather packets the latest 10 day(s).
| Time | Temp. | Humidity | Pressure | Rain* | Wind** | Luminosity | Snow |
|---|---|---|---|---|---|---|---|
| 1778193009 | 19.44° C | 75% | 1015.1 hPa | 0 mm | - | 1060 W/m² | - |
| 1778192709 | 19.44° C | 75% | 1015.1 hPa | 0 mm | - | 1062 W/m² | - |
| 1778192409 | 19.44° C | 75% | 1015.1 hPa | 0 mm | - | 1060 W/m² | - |
| 1778192108 | 20° C | 75% | 1015.2 hPa | 0 mm | - | 1060 W/m² | - |
| 1778191808 | 20° C | 74% | 1015.2 hPa | 0 mm | - | 1060 W/m² | - |
| 1778191508 | 20° C | 74% | 1015.1 hPa | 0 mm | - | 1060 W/m² | - |
| 1778191208 | 20° C | 74% | 1015 hPa | 0 mm | - | 1060 W/m² | - |
| 1778190909 | 20° C | 74% | 1015 hPa | 0 mm | - | 1058 W/m² | - |
| 1778190609 | 20° C | 74% | 1015 hPa | 0 mm | - | 1060 W/m² | - |
| 1778190309 | 20° C | 74% | 1015 hPa | 0 mm | - | 1060 W/m² | - |
| 1778190007 | 20° C | 74% | 1015 hPa | 0 mm | - | 1060 W/m² | - |
| 1778189709 | 19.44° C | 75% | 1015.1 hPa | 0 mm | - | 1060 W/m² | - |
| 1778189409 | 20° C | 75% | 1014.9 hPa | 0 mm | - | 1062 W/m² | - |
| 1778189108 | 20° C | 74% | 1014.8 hPa | 0 mm | - | 1060 W/m² | - |
| 1778188809 | 20° C | 74% | 1014.7 hPa | 0 mm | - | 1062 W/m² | - |
| 1778188509 | 20° C | 75% | 1014.7 hPa | 0 mm | - | 1058 W/m² | - |
| 1778188207 | 20° C | 74% | 1014.6 hPa | 0 mm | - | 1056 W/m² | - |
| 1778187909 | 20° C | 74% | 1014.7 hPa | 0 mm | - | 1056 W/m² | - |
| 1778187609 | 20.56° C | 74% | 1014.7 hPa | 0 mm | - | 1055 W/m² | - |
| 1778187309 | 20.56° C | 74% | 1014.7 hPa | 0 mm | - | 1056 W/m² | - |
| 1778187008 | 20.56° C | 74% | 1014.7 hPa | 0 mm | - | 1056 W/m² | - |
| 1778186709 | 20.56° C | 74% | 1014.7 hPa | 0 mm | - | 1056 W/m² | - |
| 1778186408 | 20° C | 74% | 1014.9 hPa | 0 mm | - | 1056 W/m² | - |
| 1778186109 | 20° C | 74% | 1014.8 hPa | 0 mm | - | 1058 W/m² | - |
| 1778185808 | 20° C | 74% | 1014.8 hPa | 0 mm | - | 1058 W/m² | - |
* Rain latest hour (hover to see other rain measurements)
** Current wind speed in m/s (hover to see current wind gust speed)